[[{"header":{"parameterUnit":"m.s-1","parameterCategory":1,"la1":30.2991,"la2":30.254,"lo1":-89.0895,"lo2":-89.0444,"dy":0.0017,"dx":0.0017,"nx":28,"ny":28,"refTime":"2025-01-06T03:00:00:Z","depth":0,"parameterNumber":2,"parameterNumberName":"U-component_of_WINDS"},"data":[0,0,0,0,0,0,0,0,0,0,0,0,0,0,0,0,0,0,0,0,0,0,0,0,0,0,0,0,0,0,0,0,0,0,0,0,0,0,0,0,0,0,0,0,0,0,0,0,0,0,0,0,0,0,0,0,0,0,-0.4854,-0.4855,0,-0.493,-0.4931,-0.4932,-0.4992,-0.4992,-0.4993,-0.4993,-0.5067,-0.5069,-0.507,0,0,0,0,0,0,0,0,0,0,0,0,0,-0.4756,-0.4757,-0.4854,-0.4855,-0.4856,-0.493,-0.4931,-0.4932,-0.4992,-0.4992,-0.4993,-0.4994,-0.5067,-0.5069,-0.507,0,0,0,0,0,0,0,0,0,0,0,0,0,-0.4812,-0.4758,-0.4854,-0.4895,-0.4899,-0.493,-0.4931,-0.4932,-0.4991,-0.4992,-0.4993,-0.4994,-0.5066,-0.5068,-0.5071,-0.5066,0,0,-0.5077,-0.5078,0,0,0,0,0,0,0,0,-0.4808,-0.4815,-0.4888,-0.4892,-0.4897,-0.4953,-0.4924,-0.4977,-0.4991,-0.4956,-0.4993,-0.4995,-0.5028,-0.5033,-0.5046,-0.5069,-0.5072,-0.5077,-0.5078,-0.5079,-0.508,0,0,0,0,0,0,0,-0.4804,-0.4812,-0.4884,-0.4889,-0.4894,-0.4908,-0.4917,-0.4934,-0.4986,-0.4959,-0.4964,-0.4972,-0.5031,-0.5043,-0.5048,-0.5073,-0.5077,-0.5079,-0.508,-0.5081,-0.5095,-0.5094,0,0,0,0,0,0,-0.4795,-0.4809,-0.4882,-0.4886,-0.4854,-0.4909,-0.4919,-0.4934,-0.4986,-0.4995,-0.4971,-0.4975,-0.5039,-0.5045,-0.5051,-0.5047,-0.5079,-0.5081,-0.5083,-0.5096,-0.5095,-0.5094,0,0,0,0,0,0,-0.4792,-0.4801,-0.4879,-0.4849,-0.486,-0.4909,-0.4926,-0.4935,-0.4948,-0.4995,-0.5004,-0.4975,-0.504,-0.5048,-0.5061,-0.5051,-0.5082,-0.5084,-0.5097,-0.5095,-0.5094,-0.5041,0,0,0,0,0,0,-0.4789,-0.48,-0.4799,-0.4848,-0.4861,-0.4889,-0.4925,-0.4936,-0.4951,-0.4957,-0.5001,-0.5009,-0.5042,-0.5058,-0.5063,-0.5054,-0.5086,-0.5098,-0.5096,-0.5094,-0.5044,-0.5038,-0.5033,0,0,0,0,0,-0.4786,-0.4781,-0.4799,-0.4808,-0.4862,-0.4889,-0.4896,-0.4934,-0.495,-0.495,-0.498,-0.5008,-0.5051,-0.5059,-0.5066,-0.5057,-0.5099,-0.5097,-0.5095,-0.5046,-0.5039,-0.5033,0,0,0,0,0,0,-0.4728,-0.4788,-0.4809,-0.482,-0.4849,-0.4899,-0.4899,-0.4925,-0.4949,-0.4953,-0.4998,-0.5008,-0.5016,-0.5038,-0.5045,-0.5054,-0.5078,-0.5078,-0.5039,-0.5033,-0.5027,-0.5022,-0.5088,0,0,0,0,0,-0.4717,-0.4735,-0.4786,-0.4791,-0.4804,-0.4849,-0.4862,-0.4889,-0.492,-0.4932,-0.4964,-0.4992,-0.5012,-0.5024,-0.5045,-0.5047,-0.5057,-0.5045,-0.5039,-0.5034,-0.5033,-0.5034,-0.5029,-0.5087,-0.5087,-0.5087,0,0,-0.4694,-0.4729,-0.4738,-0.478,-0.4806,-0.4822,-0.4859,-0.4875,-0.4886,-0.4934,-0.4949,-0.4973,-0.5007,-0.5015,-0.502,-0.5033,-0.5019,-0.5032,-0.5028,-0.5029,-0.5032,-0.5026,-0.5021,-0.5085,-0.5086,-0.5086,0,0,-0.466,-0.4689,-0.4696,-0.472,-0.4759,-0.4788,-0.479,-0.4835,-0.4853,-0.4869,-0.4905,-0.4919,-0.4953,-0.4975,-0.4991,-0.4963,-0.4989,-0.4969,-0.494,-0.4941,-0.4936,-0.4932,-0.4921,-0.4916,-0.4967,-0.4967,-0.4967,0,-0.4626,-0.4653,-0.4696,-0.4709,-0.4726,-0.4771,-0.4777,-0.4798,-0.4841,-0.4851,-0.4865,-0.4908,-0.4934,-0.4947,-0.494,-0.4952,-0.4953,-0.4964,-0.4934,-0.493,-0.4927,-0.4917,-0.4913,-0.4964,-0.4965,-0.4965,-0.4965,0,-0.4609,-0.4627,-0.4627,-0.4668,-0.4685,-0.4694,-0.4737,-0.4748,-0.4773,-0.4801,-0.4815,-0.4848,-0.4876,-0.4881,-0.4905,-0.4897,-0.4904,-0.4925,-0.4951,-0.4918,-0.4909,-0.4906,-0.496,-0.4961,-0.4962,-0.4963,0,0,-0.4542,-0.4605,-0.4604,-0.4623,-0.4668,-0.4681,-0.4692,-0.472,-0.4728,-0.4756,-0.4765,-0.4791,-0.4811,-0.4829,-0.4856,-0.4857,-0.4831,-0.4879,-0.488,-0.4867,-0.4822,-0.4804,-0.4799,-0.4849,-0.4848,-0.4848,-0.4819,0,-0.4514,-0.4537,-0.4574,-0.4584,-0.46,-0.4643,-0.4652,-0.4679,-0.4704,-0.472,-0.4748,-0.4766,-0.4792,-0.4802,-0.4805,-0.4834,-0.4823,-0.4837,-0.4856,-0.4856,-0.4845,-0.4795,-0.4777,-0.4748,-0.4815,-0.4815,-0.4815,0,-0.4485,-0.451,-0.4522,-0.4564,-0.4572,-0.458,-0.4608,-0.4623,-0.4654,-0.4673,-0.4692,-0.4721,-0.4733,-0.4756,-0.4772,-0.478,-0.479,-0.4805,-0.4805,-0.4807,-0.4833,-0.4795,-0.474,-0.4735,-0.481,-0.481,-0.481,0,-0.4433,-0.447,-0.4482,-0.4496,-0.4546,-0.455,-0.4571,-0.4603,-0.4617,-0.4641,-0.465,-0.4674,-0.4687,-0.4705,-0.4739,-0.4753,-0.475,-0.4777,-0.4764,-0.4763,-0.4761,-0.476,-0.4705,-0.4769,-0.4769,-0.4769,-0.4769,0,-0.4397,-0.4402,-0.4459,-0.4466,-0.4472,-0.4514,-0.4519,-0.4543,-0.4571,-0.4582,-0.462,-0.4629,-0.4675,-0.4689,-0.4716,-0.4724,-0.4729,-0.4743,-0.475,-0.4739,-0.4737,-0.4746,-0.4748,-0.4768,-0.4768,-0.4768,-0.4768,0,-0.434,-0.4379,-0.4394,-0.444,-0.4451,-0.4453,-0.4492,-0.4499,-0.4527,-0.454,-0.4546,-0.4588,-0.4606,-0.4643,-0.4671,-0.4689,-0.469,-0.4703,-0.468,-0.4684,-0.4668,-0.4669,-0.4616,-0.461,-0.4678,-0.4677,-0.4677,0,-0.4315,-0.432,-0.4366,-0.4377,-0.4397,-0.4413,-0.4428,-0.4469,-0.4482,-0.4517,-0.4519,-0.4541,-0.456,-0.4587,-0.4619,-0.464,-0.4653,-0.4633,-0.4657,-0.4645,-0.4652,-0.465,-0.465,-0.4628,-0.4627,-0.4626,-0.4625,0,-0.4265,-0.4284,-0.4304,-0.4329,-0.4346,-0.4368,-0.4392,-0.4398,-0.4444,-0.4457,-0.4476,-0.4491,-0.452,-0.454,-0.4566,-0.4585,-0.4612,-0.4618,-0.4616,-0.4604,-0.459,-0.4596,-0.4664,-0.4619,-0.4619,-0.462,-0.462,-0.4621,-0.4223,-0.4228,-0.4262,-0.4282,-0.4304,-0.4326,-0.4334,-0.4363,-0.438,-0.4407,-0.443,-0.4447,-0.4476,-0.4514,-0.4532,-0.4545,-0.4558,-0.4555,-0.4554,-0.4553,-0.4548,-0.4589,-0.455,-0.455,-0.455,-0.455,-0.4551,0,-0.4174,-0.4197,-0.4216,-0.4248,-0.4263,-0.4289,-0.4316,-0.4327,-0.4342,-0.4367,-0.4385,-0.4407,-0.4426,-0.4459,-0.4481,-0.4485,-0.4497,-0.4489,-0.4488,-0.4492,-0.4535,-0.4534,-0.4478,-0.4478,-0.4478,-0.4478,-0.4478,-0.4478,-0.415,-0.4161,-0.4183,-0.4204,-0.4227,-0.4245,-0.4258,-0.4277,-0.4297,-0.432,-0.4336,-0.4358,-0.4387,-0.441,-0.4428,-0.4438,-0.4443,-0.443,-0.4443,-0.4483,-0.4489,-0.4496,-0.4495,-0.4431,-0.4431,-0.4399,-0.4399,-0.4398]},{"header":{"parameterUnit":"m.s-1","parameterCategory":1,"la1":30.2991,"la2":30.254,"lo1":-89.0895,"lo2":-89.0444,"dy":0.0017,"dx":0.0017,"nx":28,"ny":28,"refTime":"2025-01-06T03:00:00:Z","depth":0,"parameterNumber":3,"parameterNumberName":"V-component_of_WINDS"},"data":[0,0,0,0,0,0,0,0,0,0,0,0,0,0,0,0,0,0,0,0,0,0,0,0,0,0,0,0,0,0,0,0,0,0,0,0,0,0,0,0,0,0,0,0,0,0,0,0,0,0,0,0,0,0,0,0,0,0,4.7567,4.7568,0,4.7684,4.7685,4.7686,4.7696,4.7695,4.7694,4.7693,4.7814,4.7818,4.7823,0,0,0,0,0,0,0,0,0,0,0,0,0,4.7357,4.7361,4.7567,4.7568,4.757,4.7683,4.7685,4.7687,4.7696,4.7695,4.7693,4.7692,4.7813,4.7818,4.7823,0,0,0,0,0,0,0,0,0,0,0,0,0,4.7459,4.7362,4.7567,4.7588,4.7591,4.7683,4.7685,4.7687,4.7697,4.7695,4.7693,4.7691,4.7811,4.7817,4.7824,4.7903,0,0,4.7844,4.7847,0,0,0,0,0,0,0,0,4.7453,4.7466,4.7584,4.7587,4.7591,4.7673,4.7656,4.7759,4.7697,4.7657,4.7693,4.769,4.7769,4.7779,4.7805,4.7908,4.7914,4.7845,4.7849,4.7852,4.7854,0,0,0,0,0,0,0,4.7446,4.7461,4.7613,4.7585,4.759,4.7594,4.7606,4.7676,4.7722,4.766,4.7661,4.7675,4.7771,4.7799,4.7808,4.7915,4.7845,4.785,4.7855,4.7857,4.8094,4.8096,0,0,0,0,0,0,4.7434,4.7456,4.7609,4.7617,4.7516,4.7599,4.7613,4.7649,4.7721,4.7731,4.7676,4.7675,4.7788,4.78,4.7812,4.7913,4.7852,4.7858,4.7862,4.8092,4.8094,4.8097,0,0,0,0,0,0,4.743,4.7448,4.7605,4.7537,4.7557,4.7605,4.7645,4.7652,4.768,4.7734,4.7742,4.7696,4.7787,4.7803,4.7881,4.7917,4.7861,4.7867,4.8089,4.8092,4.8096,4.8112,0,0,0,0,0,0,4.7424,4.7446,4.7475,4.7537,4.756,4.767,4.7647,4.7656,4.7691,4.7691,4.7755,4.7763,4.7787,4.7871,4.7888,4.7925,4.7872,4.8086,4.809,4.8095,4.8108,4.8115,4.8121,0,0,0,0,0,4.7416,4.7475,4.7477,4.7495,4.7597,4.7672,4.7686,4.7711,4.7694,4.7725,4.776,4.7761,4.791,4.7879,4.7898,4.7938,4.8084,4.8089,4.8094,4.8105,4.8114,4.8121,0,0,0,0,0,0,4.7416,4.7483,4.7486,4.7566,4.7613,4.7674,4.7713,4.7719,4.7772,4.7769,4.7799,4.7814,4.7892,4.7922,4.7887,4.802,4.7995,4.8004,4.7997,4.8006,4.8012,4.8004,4.7877,0,0,0,0,0,4.7425,4.7479,4.7535,4.76,4.7624,4.7664,4.7698,4.7713,4.7764,4.7784,4.7825,4.7875,4.7933,4.7971,4.8027,4.8112,4.8128,4.8149,4.8156,4.8161,4.8169,4.8221,4.8232,4.8114,4.8114,4.8114,0,0,4.7445,4.7488,4.752,4.7601,4.764,4.7697,4.7681,4.7741,4.7785,4.7794,4.7871,4.7902,4.796,4.8043,4.8082,4.8071,4.8205,4.8167,4.8171,4.8177,4.8227,4.8238,4.8248,4.8118,4.8117,4.8116,0,0,4.751,4.7547,4.7607,4.7647,4.7705,4.7733,4.7747,4.7807,4.7829,4.7906,4.7916,4.7968,4.8067,4.8109,4.8143,4.8229,4.8233,4.8246,4.8281,4.8331,4.834,4.8349,4.8382,4.8394,4.8254,4.8254,4.8254,0,4.7528,4.7613,4.7637,4.7699,4.7736,4.7747,4.781,4.7847,4.7921,4.7948,4.7934,4.8061,4.81,4.8195,4.8217,4.8243,4.8263,4.8239,4.8336,4.8345,4.8353,4.8386,4.8398,4.8255,4.8255,4.8255,4.8255,0,4.7633,4.7692,4.7734,4.7806,4.7848,4.7909,4.7946,4.7985,4.7998,4.8027,4.8108,4.8156,4.8224,4.8248,4.826,4.8346,4.8338,4.833,4.8306,4.8366,4.8397,4.8409,4.8257,4.8257,4.8256,4.8256,0,0,4.7701,4.7788,4.7803,4.7838,4.7905,4.7952,4.8015,4.8082,4.8117,4.8168,4.8225,4.8309,4.8304,4.8343,4.8361,4.8404,4.8473,4.8392,4.8393,4.8408,4.8575,4.8582,4.8596,4.8476,4.8478,4.848,4.8571,0,4.7777,4.7889,4.7915,4.8012,4.807,4.8082,4.8138,4.8186,4.8216,4.827,4.8303,4.8364,4.835,4.8375,4.8418,4.8455,4.8507,4.8449,4.8531,4.8534,4.8519,4.8612,4.8619,4.8703,4.8583,4.8585,4.8587,0,4.7879,4.7934,4.8038,4.81,4.8125,4.8175,4.824,4.8291,4.8347,4.8366,4.8411,4.8425,4.8495,4.8467,4.8564,4.8524,4.8559,4.8583,4.8587,4.8598,4.8565,4.8628,4.8729,4.8743,4.8606,4.8604,4.8603,0,4.7923,4.8022,4.8098,4.8127,4.8201,4.8236,4.8269,4.8324,4.8363,4.8421,4.8447,4.8512,4.8548,4.8598,4.8631,4.8606,4.8727,4.8701,4.8748,4.8747,4.8774,4.8772,4.8885,4.8792,4.8792,4.8791,4.8791,0,4.8006,4.807,4.8119,4.8166,4.8239,4.8269,4.8341,4.8374,4.8423,4.8478,4.8492,4.8544,4.8582,4.8641,4.8666,4.8746,4.8761,4.878,4.8787,4.878,4.8778,4.8806,4.8802,4.8795,4.8794,4.8793,4.8793,0,4.8067,4.8102,4.8187,4.8251,4.8268,4.832,4.8376,4.8423,4.8454,4.8524,4.8542,4.8591,4.866,4.8697,4.8783,4.8801,4.8891,4.8893,4.8872,4.8876,4.8922,4.8918,4.9058,4.908,4.8969,4.897,4.8971,0,4.8119,4.8168,4.8238,4.8277,4.831,4.8371,4.8412,4.8444,4.8487,4.8557,4.8597,4.8667,4.8725,4.8836,4.888,4.8947,4.8953,4.8997,4.8963,4.8956,4.8957,4.8955,4.8962,4.9004,4.9005,4.9006,4.9006,0,4.8208,4.8224,4.8282,4.8348,4.8396,4.8449,4.8502,4.8533,4.8574,4.8622,4.8693,4.8738,4.8828,4.8899,4.897,4.9006,4.9015,4.9017,4.9032,4.9027,4.9015,4.9026,4.8892,4.9014,4.9013,4.9012,4.9012,4.9012,4.8269,4.8315,4.8372,4.8438,4.8481,4.853,4.8579,4.8617,4.8676,4.8752,4.8767,4.8844,4.8903,4.9,4.9038,4.91,4.9091,4.9111,4.9117,4.9123,4.9127,4.9003,4.9112,4.9112,4.9112,4.9112,4.9112,0,4.8362,4.84,4.846,4.8533,4.8586,4.8588,4.8648,4.8692,4.8759,4.8813,4.887,4.8954,4.9024,4.9074,4.9146,4.9186,4.9192,4.9204,4.9203,4.9212,4.9129,4.911,4.9198,4.9198,4.9198,4.9198,4.9198,4.9198,4.8417,4.8496,4.8519,4.8621,4.8659,4.8734,4.8768,4.8816,4.8859,4.8952,4.901,4.9042,4.9096,4.9172,4.9237,4.9251,4.9278,4.929,4.9304,4.9226,4.9217,4.9208,4.9191,4.9295,4.9295,4.9383,4.9383,4.9384]}]]